TimeCDT,TemperatureF,Dew PointF,Humidity,Sea Level PressureIn,VisibilityMPH,Wind Direction,Wind SpeedMPH,Gust SpeedMPH,PrecipitationIn,Events,Conditions,WindDirDegrees,DateUTC
12:53 AM,70.0,66.9,90,30.21,10.0,Calm,Calm,-,N/A,,Mostly Cloudy,0,2013-05-14 05:53:00
1:43 AM,69.8,68.0,94,30.19,10.0,Calm,Calm,-,N/A,,Scattered Clouds,0,2013-05-14 06:43:00
1:53 AM,70.0,68.0,93,30.19,10.0,Calm,Calm,-,N/A,,Partly Cloudy,0,2013-05-14 06:53:00
2:53 AM,70.0,68.0,93,30.17,10.0,Calm,Calm,-,N/A,,Clear,0,2013-05-14 07:53:00
3:53 AM,70.0,68.0,93,30.16,9.0,Calm,Calm,-,N/A,,Clear,0,2013-05-14 08:53:00
4:53 AM,70.0,68.0,93,30.13,9.0,East,4.6,-,N/A,,Clear,80,2013-05-14 09:53:00
5:53 AM,71.1,69.1,93,30.13,9.0,Calm,Calm,-,N/A,,Clear,0,2013-05-14 10:53:00
6:53 AM,71.1,70.0,96,30.14,9.0,ESE,3.5,-,N/A,,Clear,110,2013-05-14 11:53:00
7:53 AM,73.0,71.1,93,30.15,8.0,ESE,5.8,-,N/A,,Clear,110,2013-05-14 12:53:00
8:53 AM,75.9,71.1,85,30.17,10.0,SE,9.2,-,0.00,Rain,Light Rain,140,2013-05-14 13:53:00
9:00 AM,75.2,69.8,83,30.17,10.0,SE,9.2,-,0.00,Rain,Light Rain,130,2013-05-14 14:00:00
9:08 AM,77.0,71.6,83,30.17,10.0,SE,12.7,-,0.00,,Scattered Clouds,130,2013-05-14 14:08:00
9:53 AM,77.0,69.1,76,30.17,10.0,ESE,11.5,-,0.00,,Scattered Clouds,110,2013-05-14 14:53:00
10:02 AM,78.8,69.8,74,30.18,10.0,ESE,10.4,-,N/A,,Mostly Cloudy,120,2013-05-14 15:02:00
10:16 AM,78.8,69.8,74,30.18,10.0,SE,13.8,-,N/A,,Mostly Cloudy,130,2013-05-14 15:16:00
10:53 AM,78.1,70.0,76,30.18,10.0,ESE,11.5,-,N/A,,Scattered Clouds,120,2013-05-14 15:53:00
11:53 AM,81.0,70.0,69,30.18,10.0,ESE,11.5,-,N/A,,Mostly Cloudy,110,2013-05-14 16:53:00
12:19 PM,80.6,69.8,70,30.17,10.0,ESE,12.7,-,N/A,,Overcast,120,2013-05-14 17:19:00
12:32 PM,80.6,69.8,70,30.17,10.0,SSE,12.7,19.6,N/A,,Overcast,150,2013-05-14 17:32:00
12:53 PM,80.1,69.1,69,30.17,10.0,ESE,15.0,-,N/A,,Overcast,120,2013-05-14 17:53:00
1:53 PM,79.0,70.0,74,30.15,10.0,SE,16.1,21.9,N/A,,Overcast,130,2013-05-14 18:53:00
2:14 PM,80.6,69.8,70,30.15,10.0,SE,15.0,-,N/A,,Overcast,130,2013-05-14 19:14:00
2:53 PM,81.0,69.1,67,30.13,10.0,SE,12.7,-,N/A,,Overcast,130,2013-05-14 19:53:00
3:12 PM,80.6,69.8,70,30.13,10.0,SE,16.1,-,N/A,,Overcast,130,2013-05-14 20:12:00
3:27 PM,80.6,69.8,70,30.13,10.0,SE,17.3,-,N/A,,Overcast,130,2013-05-14 20:27:00
3:53 PM,81.0,70.0,69,30.12,10.0,SE,11.5,-,N/A,,Overcast,130,2013-05-14 20:53:00
4:53 PM,80.1,70.0,71,30.10,10.0,SE,16.1,21.9,N/A,,Overcast,130,2013-05-14 21:53:00
5:53 PM,79.0,70.0,74,30.09,10.0,SE,13.8,-,N/A,,Overcast,140,2013-05-14 22:53:00
6:53 PM,79.0,70.0,74,30.07,10.0,SE,16.1,-,N/A,,Scattered Clouds,140,2013-05-14 23:53:00
7:27 PM,77.0,69.8,78,30.07,10.0,SE,13.8,-,N/A,,Mostly Cloudy,130,2013-05-15 00:27:00
7:53 PM,77.0,71.1,82,30.08,10.0,ESE,9.2,-,N/A,,Mostly Cloudy,120,2013-05-15 00:53:00
8:53 PM,75.9,71.1,85,30.09,10.0,ESE,8.1,-,N/A,,Mostly Cloudy,120,2013-05-15 01:53:00
9:53 PM,75.9,72.0,87,30.11,10.0,SE,10.4,-,N/A,,Overcast,130,2013-05-15 02:53:00
10:15 PM,75.2,71.6,89,30.12,10.0,SE,11.5,-,N/A,,Overcast,140,2013-05-15 03:15:00
10:53 PM,75.9,72.0,87,30.14,10.0,SE,8.1,-,N/A,,Overcast,140,2013-05-15 03:53:00
11:53 PM,75.9,72.0,87,30.14,10.0,SE,11.5,-,N/A,,Overcast,140,2013-05-15 04:53:00